Other Surface Observations
Issued by NWS

Home | Current Version | Previous Version | Text Only | Print | Product List | Glossary On
Versions: 1 2 3 4 5 6 7 8 9 10 11 12 13 14 15 16 17 18 19 20 21 22 23 24 25 26 27 28 29 30 31 32 33 34 35 36 37 38 39 40 41 42 43 44 45 46 47 48 49 50
000
SXUS52 KTAE 200818
OSOTAE
OSOTAE
North Florida/South Alabama/Southwest Georgia Weather Roundup
National Weather Service Tallahassee Florida
400 AM EDT WED AUG 20 2014

Note: "fair" indicates few or no clouds below 12,000 feet with no
significant weather and/or obstructions to visibility.

!FLZ017-115-028-034-025-200900
...North Florida...

CITY           SKY/WX    TMP DP  RH WIND       PRES   REMARKS
TALLAHASSEE    CLEAR     74  71  91 SW3       29.97S
APALACHICOLA   PTCLDY    83  76  79 SW7       29.97S HX  91
PERRY          CLEAR     73  73 100 CALM      29.97F
CROSS CITY       N/A     77  74  90 CALM      29.98F
HOMERVILLE     FAIR      73  73 100 CALM      29.97S
JACKSONVILLE   CLEAR     76  74  93 SW3       29.96F
$$

!FLZ112-006-005-002-011-200900
...Florida Panhandle...

CITY           SKY/WX    TMP DP  RH WIND       PRES   REMARKS
MARIANNA       PTCLDY    73  73 100 S7        29.96F
BONIFAY        FAIR      72  71  97 CALM      29.98R
PANAMA CITY NW FAIR      76  72  87 E3        29.96S
TYNDALL AFB    CLEAR     83  76  79 W8        29.98R HX  92
TYND DRONE APT FAIR      84  77  79 SW7       29.96  HX  94
DE FUNIAK SPR  FAIR      71  70  98 CALM      30.00R
EGLIN AFB      CLEAR     73  70  91 VRB1      29.97S
DESTIN         CLEAR     77  72  84 CALM      29.98R
HURLBURT       CLEAR     72  67  86 CALM      29.98R
CRESTVIEW      PTCLDY    71  70  96 S6        29.99S
PENSACOLA      CLEAR     70  68  93 N3        29.98R
$$

!ALZ063-066-200900
...South Alabama...

CITY           SKY/WX    TMP DP  RH WIND       PRES   REMARKS
DOTHAN         PTCLDY    73  70  90 CALM      30.01R
OZARK CAIRNS   PTCLDY    72  71  96 W5        29.98R
FT RUCKER HELI PTCLDY    72  70  93 CALM      29.97R
RUCKER HELI 3  FAIR      72  70  95 VRB2      30.00R
RUCKER HELI 2  FAIR      71  70  96 CALM      29.98R
FLORALA APT    MOCLDY    71  69  93 S3        30.00R
ANDALUSIA      MOCLDY    74  70  87 CALM      29.97S
TROY           MOCLDY    71  69  93 CALM      29.98R
EUFALA         FAIR      69  67  93 CALM      29.97R
MOBILE         MOCLDY    74  73  97 S3        29.98S
$$

!GAZ120>161-200900
...Southwest and South Central Georgia...

CITY           SKY/WX    TMP DP  RH WIND       PRES   REMARKS
THOMASVILLE    FAIR      72  72 100 CALM      29.97S
BAINBRIDGE     PTCLDY    73  72  94 CALM      29.98R
MOODY AFB      CLEAR     73  71  94 SW2       29.96F
VALDOSTA       CLEAR     72  69  90 CALM      29.97F
MOULTRIE       PTCLDY    72  72 100 CALM      29.98R
BLAKELY        PTCLDY    72  72 100 CALM        N/A
ALBANY         PTCLDY    72  71  97 CALM      29.98S
TIFTON         FAIR      73  72  95 SW3       29.97R
FITZGERALD     FAIR      72  70  91 CALM      29.99R FOG
CORDELE        FAIR      73  71  93 SW3       29.97S
AMERICUS       FAIR      70  70 100 CALM      29.99R
$$

!GMZ750-755-770-775-200900
...Coastal and Buoy Obs...

STATION/POSITION TIME  TEMP    WIND        PRES    VSBY  WAVE
                       AIR SEA DIR/SP/G                  HT/PER
                 (UTC) (F)     (DEG/KT/KT) (MB)    (MI)  (FT/S)
KEATON BEACH     0800   84     260/ 13/ 15 1014.9F
CEDAR KEY        0800   84     290/  6/  8 1015.8F
C TOWER          0800   84     230/  9/ 10 1014.7F
APALACHICOLA BUO 0800   85 86  240/  8/ 10 1015.4F         2/ 6
PANAMA CITY BUOY 0748   85 87  230/ 10/ 12 1015.0F         1/ 4
MOBILE BUOY      0748   85 87  200/ 14/ 17 1014.8F
ORANGE BCH AL BU 0800   85 85  240/ 12/ 14 1014.9R         2/ 3
$$



USA.gov is the U.S. government's official web portal to all federal, state and local government web resources and services.